This is the latest recevied weather packets stored in our database for station/object KC9DNQ-3. If no packets are shown the sender has not sent any weather packets the latest 10 day(s).
| Time | Temp. | Humidity | Pressure | Rain* | Wind** | Luminosity | Snow |
|---|---|---|---|---|---|---|---|
| 1777765511 | 14.44° C | 38% | 1015.8 hPa | 0 mm | - | 186 W/m² | - |
| 1777765211 | 14.44° C | 37% | 1015.9 hPa | 0 mm | - | 58 W/m² | - |
| 1777764913 | 14.44° C | 36% | 1015.9 hPa | 0 mm | - | 264 W/m² | - |
| 1777764621 | 14.44° C | 36% | 1015.9 hPa | 0 mm | - | 269 W/m² | - |
| 1777764311 | 14.44° C | 36% | 1016 hPa | 0 mm | - | 294 W/m² | - |
| 1777764011 | 14.44° C | 36% | 1016 hPa | 0 mm | - | 292 W/m² | - |
| 1777763711 | 13.89° C | 36% | 1016 hPa | 0 mm | - | 313 W/m² | - |
| 1777763411 | 13.89° C | 37% | 1016 hPa | 0 mm | - | 341 W/m² | - |
| 1777763111 | 13.89° C | 38% | 1016 hPa | 0 mm | - | 113 W/m² | - |
| 1777762811 | 13.89° C | 38% | 1016.1 hPa | 0 mm | - | 387 W/m² | - |
| 1777762510 | 13.89° C | 39% | 1016.1 hPa | 0 mm | - | 102 W/m² | - |
| 1777762211 | 14.44° C | 37% | 1016.1 hPa | 0 mm | - | 113 W/m² | - |
| 1777761911 | 14.44° C | 36% | 1016.1 hPa | 0 mm | - | 114 W/m² | - |
| 1777761611 | 15° C | 36% | 1016.1 hPa | 0 mm | - | 446 W/m² | - |
| 1777761311 | 15° C | 40% | 1016.1 hPa | 0 mm | - | 489 W/m² | - |
| 1777761011 | 14.44° C | 36% | 1016.1 hPa | 0 mm | - | 552 W/m² | - |
| 1777760711 | 13.89° C | 38% | 1016.1 hPa | 0 mm | - | 577 W/m² | - |
| 1777760412 | 13.33° C | 41% | 1016.1 hPa | 0 mm | - | 434 W/m² | - |
| 1777760111 | 13.33° C | 41% | 1016.1 hPa | 0 mm | - | 162 W/m² | - |
| 1777759812 | 13.33° C | 42% | 1016.2 hPa | 0 mm | - | 172 W/m² | - |
| 1777759511 | 12.78° C | 40% | 1016.3 hPa | 0 mm | - | 174 W/m² | - |
| 1777759211 | 12.78° C | 40% | 1016.3 hPa | 0 mm | - | 146 W/m² | - |
| 1777758911 | 12.78° C | 39% | 1016.3 hPa | 0 mm | - | 114 W/m² | - |
| 1777758611 | 13.33° C | 40% | 1016.3 hPa | 0 mm | - | 107 W/m² | - |
| 1777758311 | 13.33° C | 44% | 1016.3 hPa | 0 mm | - | 113 W/m² | - |
* Rain latest hour (hover to see other rain measurements)
** Current wind speed in m/s (hover to see current wind gust speed)